Terminal Aerodrome Forecast
Issued by NWS

Current Version | Previous Version | Graphics & Text | Print | Product List | Glossary On
Versions: 1 2 3 4 5 6 7 8 9 10 11 12 13 14 15 16 17 18 19
000
FTUS41 KPBZ 231000 AAA
TAFHLG
TAF AMD
KHLG 231008Z 2310/2406 23006KT P6SM OVC080
     FM231500 25012KT 5SM -SHRA VCTS BKN035CB
     FM232100 29012KT P6SM BKN035
     FM240200 31006KT P6SM SCT035=

USA.gov is the U.S. government's official web portal to all federal, state and local government web resources and services.